AO-91
1 43017U 17073E 17341.34175393 .00000444 00000-0 40460-4 0 9994
2 43017 097.6928 275.6688 0260776 175.7619 184.5890 14.77789342002777
EcAMSat
1 43019U 98067NG 17341.19058147 .00005850 00000-0 92624-4 0 9993
2 43019 51.6397 255.7871 0005470 169.2668 190.8441 15.54997781 88659
/EX
1
0
As promised, AO-91 (FOX-1B) is now NORAD CAT ID 43017. This should be the
last change of object number. Thanks to all who have labored to finally come
to this point.
Also I have added EcAMSat (NORAD CAT ID 43019) to this week's AMSAT-NA TLE
Distribution.
EcAMSat was developed through a partnership between NASA's Ames Research
Center and Standford University School of medicine and has only a data
downlink on 437.095 MHz. See the following AMSAT News Service Bulletin
ANS-330 link for more information. Thanks to Nico Janssen, PA0DLO for
satellite ID.
http://www.amsat.org/pipermail/ans/2017/000998.html
Ray Hoad, WA5QGD
Orbital Elements Manager
1
0
SB KEPS @ AMSAT $ORB17334.N
2Line Orbital Elements 17334.AMSAT
HR AMSAT ORBITAL ELEMENTS FOR AMATEUR SATELLITES IN NASA FORMAT
FROM WA5QGD FORT WORTH,TX November 30, 2017
BID: ORB17334.N
DECODE 2-LINE ELSETS WITH THE FOLLOWING KEY:
1 AAAAAU 00 0 0 BBBBB.BBBBBBBB .CCCCCCCC 00000-0 00000-0 0 DDDZ
2 AAAAA EEE.EEEE FFF.FFFF GGGGGGG HHH.HHHH III.IIII JJ.JJJJJJJJKKKKKZ
KEY: A-CATALOGNUM B-EPOCHTIME C-DECAY D-ELSETNUM E-INCLINATION F-RAAN
G-ECCENTRICITY H-ARGPERIGEE I-MNANOM J-MNMOTION K-ORBITNUM Z-CHECKSUM
TO ALL RADIO AMATEURS BT
AO-07
1 07530U 74089B 17334.55702986 -.00000032 00000-0 77634-4 0 9990
2 07530 101.6567 300.1074 0012254 001.2411 110.3082 12.53630054969470
UO-11
1 14781U 84021B 17334.56237681 .00000145 00000-0 24064-4 0 9992
2 14781 097.6766 013.9547 0008956 024.0777 336.0854 14.82960641794008
LO-19
1 20442U 90005G 17334.40930249 .00000004 00000-0 17439-4 0 9997
2 20442 098.5906 269.3324 0012221 022.1327 338.0382 14.32879672455364
HUBBLE
1 20580U 90037B 17334.51204657 .00000672 00000-0 30366-4 0 9999
2 20580 028.4708 348.3575 0002817 157.3885 336.3476 15.08934146315345
MET-2/21
1 22782U 93055A 17334.33483688 .00000047 00000-0 28882-4 0 9997
2 22782 82.5504 251.7216 0021767 328.1776 148.3561 13.83806308224677
AO-27
1 22825U 93061C 17334.51003501 .00000007 00000-0 20404-4 0 9992
2 22825 098.8360 302.3258 0007944 199.6400 160.4476 14.30015003260903
IO-26
1 22826U 93061D 17334.50282582 .00000013 00000-0 22790-4 0 9997
2 22826 098.8301 302.3807 0008641 189.7353 170.3662 14.30345293261108
FO-29
1 24278U 96046B 17334.61324560 -.00000021 00000-0 17703-4 0 9999
2 24278 098.5351 195.5136 0349334 266.0353 090.0792 13.53080375051139
NOAA-15
1 25338U 98030A 17334.59998637 .00000055 00000-0 41753-4 0 9999
2 25338 098.7783 345.8157 0011593 084.5313 275.7189 14.25828391016460
GO-32
1 25397U 98043D 17334.41392461 -.00000009 00000-0 15277-4 0 9994
2 25397 098.6280 273.3712 0000628 175.5930 184.5254 14.23634876007226
ISS
1 25544U 98067A 17334.91577597 -.00018328 00000-0 -27114-3 0 9990
2 25544 51.6426 287.1489 0003466 183.7835 283.1860 15.54033939 87688
NO-44
1 26931U 01043C 17334.51199984 -.00000007 00000-0 28992-4 0 9995
2 26931 067.0522 022.0482 0005283 266.0057 094.0441 14.30485265844069
SO-50
1 27607U 02058C 17334.47967434 .00000085 00000-0 32838-4 0 9990
2 27607 064.5556 337.3751 0040801 021.1335 339.1441 14.75396663803514
CO-55
1 27844U 03031E 17334.54773606 .00000084 00000-0 57499-4 0 9998
2 27844 098.6891 341.1304 0009060 221.8207 138.2279 14.22078797747929
CO-57
1 27848U 03031J 17334.59284657 .00000075 00000-0 54175-4 0 9998
2 27848 098.6981 341.5016 0008831 232.3429 127.6948 14.21687937747819
RS-22
1 27939U 03042A 17334.86254729 .00000153 00000-0 35930-4 0 9993
2 27939 97.9624 114.4835 0014082 60.8900 56.4018 14.66634697757749
NOAA-18
1 28654U 05018A 17334.60665996 .00000006 00000-0 28762-4 0 9999
2 28654 099.1691 000.7820 0013755 327.9858 032.0476 14.12358992645654
CO-58
1 28895U 05043F 17334.38922105 .00000218 00000-0 50799-4 0 9997
2 28895 097.8828 129.2292 0016333 342.3572 017.7062 14.63479402644563
Falconsat-3
1 30776U 07006E 17334.57948056 .00004116 00000-0 12545-3 0 9990
2 30776 035.4355 090.1454 0002723 015.5453 344.5356 15.33512580593808
CO-65
1 32785U 08021C 17334.54776679 .00000357 00000-0 44520-4 0 9999
2 32785 097.5564 351.1383 0012581 343.6172 016.4637 14.88016834519566
AAUSAT2
1 32788U 08021F 17334.60377955 .00000402 00000-0 42700-4 0 9992
2 32788 097.5425 004.1858 0010549 297.1370 062.8774 14.94130606520427
DO-64
1 32789U 08021G 17334.22380048 .00002075 00000-0 14825-3 0 9992
2 32789 097.5406 028.8372 0011172 253.7466 106.2532 15.05539004521747
CO-66
1 32791U 08021J 17334.55468009 .00000574 00000-0 64322-4 0 9995
2 32791 097.5503 356.0041 0012480 325.0902 034.9497 14.90404297519841
RS-30
1 32953U 08025A 17334.80603282 .00000031 00000-0 15566-3 0 9994
2 32953 82.5001 136.0574 0018492 282.2537 77.6472 12.43080397432121
PRISM
1 33493U 09002B 17334.73135202 .00001572 00000-0 14565-3 0 9993
2 33493 98.1472 224.0027 0013659 253.2146 106.7570 14.95982993480679
NOAA-19
1 33591U 09005A 17334.55434054 .00000119 00000-0 89956-4 0 9995
2 33591 99.1160 303.9272 0014185 160.9411 199.2293 14.12233227454146
TISAT-1
1 36799U 10035E 17334.29820984 .00000744 00000-0 81918-4 0 9999
2 36799 98.0816 100.6177 0013335 137.7348 222.4899 14.90620562400520
JUGNU
1 37839U 11058B 17331.89641198 .00000311 00000-0 23997-4 0 9995
2 37839 19.9597 177.8229 0018926 187.8145 295.1682 14.12602413316870
SRMSAT
1 37841U 11058D 17334.87043789 .00000329 00000-0 35850-4 0 9991
2 37841 19.9707 204.9053 0011937 112.5890 315.2193 14.10593238316840
AO-71
1 37854U 11061E 17334.45587479 .00002582 00000-0 14288-3 0 9996
2 37854 101.7019 292.6706 0165273 302.6335 055.9020 15.04871936331480
HRBE
1 37855U 11061F 17334.51371308 .00002775 00000-0 15014-3 0 9998
2 37855 101.7139 290.4496 0178440 309.9928 048.5732 15.03832986331315
ALMASAT-1
1 38078U 12006B 17334.89587013 .00023151 37455-5 24004-3 0 9998
2 38078 69.4357 41.2192 0276622 43.3678 75.2659 15.30328049310213
HORYU-2
1 38340U 12025D 17334.58344936 .00000331 00000-0 56814-4 0 9993
2 38340 098.3762 344.3857 0012691 120.1903 240.0564 14.75456181287419
RS-40
1 38735U 12041C 17334.80031117 .00000019 00000-0 63389-4 0 9996
2 38735 82.4775 220.2965 0017580 27.4587 332.7418 12.42575434242396
BEESAT-3
1 39134U 13015E 17334.61891985 .00002447 00000-0 12622-3 0 9998
2 39134 064.8660 048.9543 0030813 239.2450 120.5642 15.18556925254362
BEESAT-2
1 39136U 13015G 17334.61938106 .00001838 00000-0 10528-3 0 9993
2 39136 064.8705 062.0507 0032105 259.9315 099.8188 15.15674488254103
ZACUBE-1
1 39417U 13066B 17334.66322765 .00000332 00000-0 48133-4 0 9996
2 39417 97.6106 8.6643 0060697 85.5001 275.3143 14.80830801217412
TRITON-1
1 39427U 13066M 17334.55934238 .00000274 00000-0 51778-4 0 9993
2 39427 097.6363 338.7564 0114314 175.0694 185.1667 14.67571254215254
GOMX-1
1 39430U 13066Q 17334.90230757 .00000229 00000-0 50916-4 0 9994
2 39430 97.6770 321.3347 0150531 236.3073 122.3700 14.58982473214237
LO-74
1 39440U 13066AA 17334.59496226 .00000321 00000-0 51592-4 0 9999
2 39440 097.6147 356.5144 0081948 119.9427 240.9953 14.75568309215432
AO-73
1 39444U 13066AE 17334.55933513 .00000417 00000-0 57838-4 0 9999
2 39444 097.6121 009.8349 0059814 082.0927 278.7070 14.81588303215651
SPROUT
1 39770U 14029E 17334.84526305 .00001011 00000-0 12021-3 0 9995
2 39770 97.8758 72.6500 0010137 134.3159 225.8891 14.86559489190891
